"Period start","avg(HW err(1)/warn(2) (#))","avg(Visibility (m))","avg(Weather code (#))","avg(Precip intensity (mm/h))","min(HW err(1)/warn(2) (#))","max(HW err(1)/warn(2) (#))","std(HW err(1)/warn(2) (#))","med(HW err(1)/warn(2) (#))","min(Visibility (m))","max(Visibility (m))","std(Visibility (m))","med(Visibility (m))","min(Weather code (#))","max(Weather code (#))","std(Weather code (#))","med(Weather code (#))","min(Precip intensity (mm/h))","max(Precip intensity (mm/h))","std(Precip intensity (mm/h))","med(Precip intensity (mm/h))"
2016-05-24 00:00:00,2,6285,41,0.02,2,2,0,2,4622,7801,969,6181,10,77,31,40,0.00,0.10,0.03,0.00
2016-05-24 00:10:00,2,4696,71,0.33,2,2,0,2,2955,6697,1210,4500,71,71,0,71,0.05,0.65,0.22,0.28
2016-05-24 00:20:00,2,3427,71,0.60,2,2,0,2,2348,4581,660,3366,71,71,0,71,0.15,1.40,0.38,0.50
2016-05-24 00:30:00,2,6286,72,0.12,2,2,0,2,3854,7764,1445,6917,71,77,2,71,0.00,0.50,0.16,0.05
2016-05-24 00:40:00,2,7373,76,0.01,2,2,0,2,5937,8545,816,7582,71,77,2,77,0.00,0.05,0.02,0.00
2016-05-24 00:50:00,2,7018,77,0.02,2,2,0,2,5460,8049,802,7150,77,77,0,77,0.00,0.05,0.02,0.00
2016-05-24 01:00:00,2,8640,17,0.00,2,2,0,2,6876,9917,807,8777,10,77,20,10,0.00,0.00,0.00,0.00
2016-05-24 01:10:00,2,9017,10,0.00,2,2,0,2,7836,10084,582,9090,10,10,0,10,0.00,0.00,0.00,0.00
2016-05-24 01:20:00,2,8815,10,0.00,2,2,0,2,7672,11207,1022,8512,10,10,0,10,0.00,0.00,0.00,0.00
2016-05-24 01:30:00,2,6349,10,0.00,2,2,0,2,5171,8664,1005,6051,10,10,0,10,0.00,0.00,0.00,0.00
2016-05-24 01:40:00,2,6287,10,0.00,2,2,0,2,5342,6858,516,6418,10,10,0,10,0.00,0.00,0.00,0.00
2016-05-24 01:50:00,2,6795,10,0.00,2,2,0,2,6215,7856,461,6759,10,10,0,10,0.00,0.00,0.00,0.00
2016-05-24 02:00:00,2,6502,10,0.00,2,2,0,2,6021,7014,289,6543,10,10,0,10,0.00,0.00,0.00,0.00
2016-05-24 02:10:00,2,6276,10,0.00,2,2,0,2,6048,6625,219,6184,10,10,0,10,0.00,0.00,0.00,0.00
2016-05-24 02:20:00,2,6101,10,0.00,2,2,0,2,5536,6838,354,6092,10,10,0,10,0.00,0.00,0.00,0.00
2016-05-24 02:30:00,2,6079,10,0.00,2,2,0,2,5443,6823,367,6154,10,10,0,10,0.00,0.00,0.00,0.00
2016-05-24 02:40:00,2,5920,10,0.00,2,2,0,2,5495,6488,313,5819,10,10,0,10,0.00,0.00,0.00,0.00
2016-05-24 02:50:00,2,6052,10,0.00,2,2,0,2,5489,6469,299,6032,10,10,0,10,0.00,0.00,0.00,0.00
2016-05-24 03:00:00,2,5384,10,0.00,2,2,0,2,4448,5889,438,5488,10,10,0,10,0.00,0.00,0.00,0.00
2016-05-24 03:10:00,2,7133,10,0.00,2,2,0,2,5419,8682,1266,7302,10,10,0,10,0.00,0.00,0.00,0.00
2016-05-24 03:20:00,2,8394,10,0.00,2,2,0,2,7637,8997,394,8425,10,10,0,10,0.00,0.00,0.00,0.00
2016-05-24 03:30:00,2,5896,10,0.00,2,2,0,2,3941,8352,1463,5498,10,10,0,10,0.00,0.00,0.00,0.00
2016-05-24 03:40:00,2,4940,19,0.01,2,2,0,2,4044,5595,469,5060,10,41,14,10,0.00,0.05,0.02,0.00
2016-05-24 03:50:00,2,5528,60,0.01,2,2,0,2,4370,6408,725,5688,10,77,27,77,0.00,0.05,0.02,0.00
2016-05-24 04:00:00,2,6167,10,0.00,2,2,0,2,5694,6860,306,6101,10,10,0,10,0.00,0.00,0.00,0.00
2016-05-24 04:10:00,2,6497,10,0.00,2,2,0,2,6061,7052,388,6408,10,10,0,10,0.00,0.00,0.00,0.00
2016-05-24 04:20:00,2,6869,10,0.00,2,2,0,2,6423,7725,399,6714,10,10,0,10,0.00,0.00,0.00,0.00
2016-05-24 04:30:00,2,5860,10,0.00,2,2,0,2,3642,6973,858,5923,10,10,0,10,0.00,0.00,0.00,0.00
2016-05-24 04:40:00,2,4123,48,0.03,2,2,0,2,3090,5251,711,4080,10,77,24,41,0.00,0.10,0.03,0.00
2016-05-24 04:50:00,2,4943,10,0.00,2,2,0,2,4210,5475,359,5072,10,10,0,10,0.00,0.00,0.00,0.00
2016-05-24 05:00:00,2,5813,10,0.00,2,2,0,2,5173,6413,415,5798,10,10,0,10,0.00,0.00,0.00,0.00
2016-05-24 05:10:00,2,6259,10,0.00,2,2,0,2,5839,6919,290,6254,10,10,0,10,0.00,0.00,0.00,0.00
2016-05-24 05:20:00,2,5448,10,0.00,2,2,0,2,5073,6123,337,5332,10,10,0,10,0.00,0.00,0.00,0.00
2016-05-24 05:30:00,2,4007,32,0.08,2,2,0,2,2849,5354,877,3692,10,61,20,40,0.00,0.25,0.09,0.07
2016-05-24 05:40:00,2,3260,69,0.23,2,2,0,2,2785,3937,361,3176,61,77,5,67,0.15,0.45,0.08,0.20
2016-05-24 05:50:00,2,3338,74,0.21,2,2,0,2,2764,3751,308,3374,67,77,5,77,0.10,0.50,0.13,0.15
2016-05-24 06:00:00,2,3834,48,0.15,2,2,0,2,2959,4790,639,3730,10,67,22,54,0.00,0.35,0.13,0.12
2016-05-24 06:10:00,2,5289,10,0.00,2,2,0,2,4882,5668,232,5292,10,10,0,10,0.00,0.00,0.00,0.00
2016-05-24 06:20:00,2,5475,10,0.00,2,2,0,2,5076,5897,293,5474,10,10,0,10,0.00,0.00,0.00,0.00
2016-05-24 06:30:00,2,5933,10,0.00,2,2,0,2,5363,6348,309,5990,10,10,0,10,0.00,0.00,0.00,0.00
2016-05-24 06:40:00,2,5303,10,0.00,2,2,0,2,4892,5873,292,5265,10,10,0,10,0.00,0.00,0.00,0.00
2016-05-24 06:50:00,2,5669,10,0.00,2,2,0,2,5208,6041,208,5708,10,10,0,10,0.00,0.00,0.00,0.00
2016-05-24 07:00:00,2,5502,10,0.00,2,2,0,2,5110,5691,168,5514,10,10,0,10,0.00,0.00,0.00,0.00
2016-05-24 07:10:00,2,5342,10,0.00,2,2,0,2,4636,6016,423,5312,10,10,0,10,0.00,0.00,0.00,0.00
2016-05-24 07:20:00,2,5033,19,0.01,2,2,0,2,4500,6024,468,5013,10,41,14,10,0.00,0.05,0.02,0.00
2016-05-24 07:30:00,2,4984,10,0.00,2,2,0,2,4670,5408,271,4938,10,10,0,10,0.00,0.00,0.00,0.00
2016-05-24 07:40:00,2,4404,10,0.00,2,2,0,2,3770,4894,325,4382,10,10,0,10,0.00,0.00,0.00,0.00
2016-05-24 07:50:00,2,4062,10,0.00,2,2,0,2,3817,4338,176,4123,10,10,0,10,0.00,0.00,0.00,0.00
2016-05-24 08:00:00,2,3980,10,0.00,2,2,0,2,3716,4319,197,3966,10,10,0,10,0.00,0.00,0.00,0.00
2016-05-24 08:10:00,2,3460,22,0.01,2,2,0,2,3087,3799,234,3487,10,41,15,10,0.00,0.05,0.02,0.00
2016-05-24 08:20:00,2,3235,41,0.12,2,2,0,2,2603,3834,399,3242,41,41,0,41,0.05,0.25,0.06,0.10
2016-05-24 08:30:00,2,3060,58,0.05,2,2,0,2,2010,4177,792,2916,10,77,22,71,0.00,0.15,0.05,0.05
2016-05-24 08:40:00,2,2427,50,0.20,2,2,0,2,1560,3675,641,2326,10,77,24,56,0.00,0.50,0.16,0.17
2016-05-24 08:50:00,2,5800,26,0.02,2,2,0,2,3157,6929,1296,6456,10,77,27,10,0.00,0.15,0.05,0.00
2016-05-24 09:00:00,2,8198,10,0.00,2,2,0,2,7134,10272,809,8134,10,10,0,10,0.00,0.00,0.00,0.00
2016-05-24 09:10:00,2,13049,10,0.00,2,2,0,2,11117,15696,1348,13144,10,10,0,10,0.00,0.00,0.00,0.00
2016-05-24 09:20:00,2,13306,0,0.00,2,2,0,2,11673,15594,1055,13224,0,0,0,0,0.00,0.00,0.00,0.00
2016-05-24 09:30:00,2,13894,0,0.00,2,2,0,2,11619,17326,1886,13971,0,0,0,0,0.00,0.00,0.00,0.00
2016-05-24 09:40:00,2,13173,0,0.00,2,2,0,2,11448,16184,1318,12602,0,0,0,0,0.00,0.00,0.00,0.00
2016-05-24 09:50:00,2,12653,0,0.00,2,2,0,2,10904,14744,1065,12526,0,0,0,0,0.00,0.00,0.00,0.00
2016-05-24 10:00:00,2,12060,0,0.00,2,2,0,2,10779,13589,994,11952,0,0,0,0,0.00,0.00,0.00,0.00
2016-05-24 10:10:00,2,10969,0,0.00,2,2,0,2,9325,11949,753,11092,0,0,0,0,0.00,0.00,0.00,0.00
2016-05-24 10:20:00,2,12776,0,0.00,2,2,0,2,11173,14009,907,13013,0,0,0,0,0.00,0.00,0.00,0.00
2016-05-24 10:30:00,2,10362,0,0.00,2,2,0,2,8169,12326,1107,10514,0,0,0,0,0.00,0.00,0.00,0.00
2016-05-24 10:40:00,2,8325,3,0.00,2,2,0,2,7389,9331,703,8380,0,10,5,0,0.00,0.00,0.00,0.00
2016-05-24 10:50:00,2,7475,10,0.00,2,2,0,2,4691,8951,1209,7467,10,10,0,10,0.00,0.00,0.00,0.00
2016-05-24 11:00:00,2,7562,10,0.00,2,2,0,2,5803,8780,899,7656,10,10,0,10,0.00,0.00,0.00,0.00
2016-05-24 11:10:00,2,5675,10,0.00,2,2,0,2,3430,8619,1742,5432,10,10,0,10,0.00,0.00,0.00,0.00
2016-05-24 11:20:00,2,3602,10,0.00,2,2,0,2,2980,4340,438,3593,10,10,0,10,0.00,0.00,0.00,0.00
2016-05-24 11:30:00,2,4126,10,0.00,2,2,0,2,3701,4948,333,4008,10,10,0,10,0.00,0.00,0.00,0.00
2016-05-24 11:40:00,2,5865,10,0.00,2,2,0,2,5403,6427,296,5870,10,10,0,10,0.00,0.00,0.00,0.00
2016-05-24 11:50:00,2,6064,10,0.00,2,2,0,2,5192,7998,892,5600,10,10,0,10,0.00,0.00,0.00,0.00
2016-05-24 12:00:00,2,4668,10,0.00,2,2,0,2,3049,5489,955,5190,10,10,0,10,0.00,0.00,0.00,0.00
2016-05-24 12:10:00,2,4428,19,0.01,2,2,0,2,3015,5706,704,4430,10,41,14,10,0.00,0.15,0.05,0.00
2016-05-24 12:20:00,2,5460,19,0.03,2,2,0,2,4504,6944,743,5189,10,41,14,10,0.00,0.20,0.06,0.00
2016-05-24 12:30:00,2,6255,51,0.04,2,2,0,2,4683,8455,1059,6267,41,77,15,41,0.00,0.10,0.04,0.05
2016-05-24 12:40:00,2,6701,76,0.02,2,2,0,2,4551,9227,1382,6673,71,77,2,77,0.00,0.10,0.03,0.00
2016-05-24 12:50:00,2,6139,72,0.07,2,2,0,2,3911,7328,1146,6412,71,77,2,71,0.00,0.20,0.06,0.05
2016-05-24 13:00:00,2,5180,76,0.06,2,2,0,2,3741,6669,1058,4875,71,77,2,77,0.00,0.10,0.04,0.05
2016-05-24 13:10:00,2,6480,44,0.03,2,2,0,2,6067,6971,257,6444,10,77,34,44,0.00,0.15,0.05,0.00
2016-05-24 13:20:00,2,5628,10,0.00,2,2,0,2,4914,6106,407,5741,10,10,0,10,0.00,0.00,0.00,0.00
2016-05-24 13:30:00,2,5639,10,0.00,2,2,0,2,4797,6532,577,5639,10,10,0,10,0.00,0.00,0.00,0.00
2016-05-24 13:40:00,2,6813,10,0.00,2,2,0,2,6482,7265,272,6732,10,10,0,10,0.00,0.00,0.00,0.00
2016-05-24 13:50:00,2,6392,38,0.10,2,2,0,2,5462,7795,714,6148,10,41,9,41,0.00,0.25,0.08,0.10
2016-05-24 14:00:00,2,7829,41,0.03,2,2,0,2,7339,8377,287,7784,41,41,0,41,0.00,0.05,0.02,0.05
2016-05-24 14:10:00,2,8075,41,0.05,2,2,0,2,7404,8573,299,8124,41,41,0,41,0.00,0.10,0.04,0.05
2016-05-24 14:20:00,2,5746,72,0.18,2,2,0,2,3130,8526,1519,5589,41,77,11,77,0.05,0.45,0.12,0.17
2016-05-24 14:30:00,2,9538,59,0.06,2,2,0,2,6883,11072,1438,10004,41,77,18,59,0.00,0.10,0.04,0.05
2016-05-24 14:40:00,2,5292,64,0.28,2,2,0,2,2554,8535,2280,4111,41,77,15,71,0.05,0.85,0.25,0.20
2016-05-24 14:50:00,2,6751,76,0.12,2,2,0,2,2675,10097,2355,6878,71,77,2,77,0.00,0.40,0.13,0.08
2016-05-24 15:00:00,2,6299,77,0.22,2,2,0,2,3261,9468,1877,6487,77,77,0,77,0.05,0.45,0.12,0.20
2016-05-24 15:10:00,2,8396,74,0.16,2,2,0,2,2771,11306,2524,8958,71,77,3,74,0.00,0.65,0.21,0.05
2016-05-24 15:20:00,2,6978,72,0.30,2,2,0,2,3699,10592,2031,7124,71,77,2,71,0.00,0.65,0.24,0.22
"Period start","avg(HW err(1)/warn(2) (#))","avg(Visibility (m))","avg(Weather code (#))","avg(Precip intensity (mm/h))","min(HW err(1)/warn(2) (#))","max(HW err(1)/warn(2) (#))","std(HW err(1)/warn(2) (#))","med(HW err(1)/warn(2) (#))","min(Visibility (m))","max(Visibility (m))","std(Visibility (m))","med(Visibility (m))","min(Weather code (#))","max(Weather code (#))","std(Weather code (#))","med(Weather code (#))","min(Precip intensity (mm/h))","max(Precip intensity (mm/h))","std(Precip intensity (mm/h))","med(Precip intensity (mm/h))"
2016-05-24 17:30:00,2,12096,73,0.36,2,2,0,2,2872,28166,8040,8782,71,77,3,71,0.00,1.00,0.33,0.33
2016-05-24 17:40:00,2,19208,74,0.03,2,2,0,2,8291,31026,7912,19147,71,77,3,74,0.00,0.15,0.05,0.00
2016-05-24 17:50:00,2,27979,73,0.02,2,2,0,2,18522,39134,6837,27484,71,77,3,71,0.00,0.05,0.02,0.00
2016-05-24 18:00:00,2,16543,72,0.12,2,2,0,2,3792,40056,11253,13463,71,77,2,71,0.00,0.40,0.14,0.08
2016-05-24 18:10:00,2,49778,8,0.00,2,2,0,2,47785,50000,664,50000,0,77,23,0,0.00,0.00,0.00,0.00
2016-05-24 18:20:00,2,46001,0,0.00,2,2,0,2,33508,50000,4709,47882,0,0,0,0,0.00,0.00,0.00,0.00
2016-05-24 18:30:00,2,35484,0,0.00,2,2,0,2,21636,50000,10713,33628,0,0,0,0,0.00,0.00,0.00,0.00
2016-05-24 18:40:00,2,50000,0,0.00,2,2,0,2,50000,50000,0,50000,0,0,0,0,0.00,0.00,0.00,0.00
2016-05-24 18:50:00,2,36514,0,0.00,2,2,0,2,23272,50000,8436,34950,0,0,0,0,0.00,0.00,0.00,0.00
2016-05-24 19:00:00,2,10939,16,0.07,2,2,0,2,2691,35773,9419,7380,0,77,26,0,0.00,0.40,0.13,0.00
2016-05-24 19:10:00,2,4469,76,0.12,2,2,0,2,2286,7611,1906,3572,71,77,2,77,0.00,0.65,0.19,0.05
2016-05-24 19:20:00,2,1312,59,0.04,2,2,0,2,1004,2108,324,1190,41,77,18,59,0.00,0.10,0.03,0.05
2016-05-24 19:30:00,2,1702,51,0.02,2,2,0,2,1111,2451,445,1685,41,77,15,41,0.00,0.05,0.02,0.00
2016-05-24 19:40:00,2,2248,69,0.03,2,2,0,2,1165,3811,871,1984,41,77,14,77,0.00,0.05,0.03,0.03
2016-05-24 19:50:00,2,3797,10,0.00,2,2,0,2,3145,4435,501,3975,10,10,0,10,0.00,0.00,0.00,0.00
2016-05-24 20:00:00,2,8034,10,0.00,2,2,0,2,3283,27038,7192,4618,10,10,0,10,0.00,0.00,0.00,0.00
2016-05-24 20:10:00,2,34296,7,0.00,2,2,0,2,18821,49126,8725,34498,0,10,5,10,0.00,0.00,0.00,0.00
2016-05-24 20:20:00,2,32998,4,0.01,2,2,0,2,8427,50000,12020,34576,0,40,12,0,0.00,0.05,0.02,0.00
2016-05-24 20:30:00,2,14940,72,0.05,2,2,0,2,5580,29104,8270,11904,40,77,11,77,0.00,0.25,0.07,0.05
2016-05-24 20:40:00,2,32670,0,0.00,2,2,0,2,15926,50000,10052,33055,0,0,0,0,0.00,0.00,0.00,0.00
2016-05-24 20:50:00,2,40176,0,0.00,2,2,0,2,24286,50000,7764,41104,0,0,0,0,0.00,0.00,0.00,0.00
2016-05-24 21:00:00,2,35167,0,0.00,2,2,0,2,10552,50000,11521,35356,0,0,0,0,0.00,0.00,0.00,0.00
2016-05-24 21:10:00,2,24628,0,0.00,2,2,0,2,7628,50000,14676,22946,0,0,0,0,0.00,0.00,0.00,0.00
2016-05-24 21:20:00,2,5137,28,0.07,2,2,0,2,2830,9769,2197,4610,0,77,30,20,0.00,0.35,0.11,0.03
2016-05-24 21:30:00,2,8420,76,0.09,2,2,0,2,2896,13792,3492,8720,71,77,2,77,0.00,0.35,0.11,0.05
2016-05-24 21:40:00,2,12557,75,0.09,2,2,0,2,2872,28015,9079,8708,71,77,3,77,0.00,0.45,0.16,0.00
2016-05-24 21:50:00,2,15842,58,0.02,2,2,0,2,4787,46599,14284,6486,0,77,29,71,0.00,0.10,0.03,0.00
2016-05-24 22:00:00,2,13319,43,0.01,2,2,0,2,5099,38179,9555,10148,10,77,33,40,0.00,0.05,0.02,0.00
2016-05-24 22:10:00,2,17776,38,0.04,2,2,0,2,2722,35450,11267,16760,10,41,9,41,0.00,0.15,0.05,0.05
2016-05-24 22:20:00,2,4942,41,0.10,2,2,0,2,1527,9063,2285,5174,10,77,24,41,0.00,0.30,0.11,0.08
2016-05-24 22:30:00,2,10443,10,0.00,2,2,0,2,4043,22291,6263,7184,10,10,0,10,0.00,0.00,0.00,0.00
2016-05-24 22:40:00,2,7587,47,0.65,2,2,0,2,1206,38274,11320,2279,10,71,30,71,0.00,2.45,0.82,0.23
2016-05-24 22:50:00,2,2572,71,0.35,2,2,0,2,1686,4352,733,2416,71,71,0,71,0.00,1.15,0.34,0.25
2016-05-24 23:00:00,2,4419,47,0.09,2,2,0,2,2124,8202,1899,3528,10,77,23,41,0.00,0.25,0.09,0.05
2016-05-24 23:10:00,2,11736,45,0.03,2,2,0,2,3426,26322,8476,8358,10,71,29,67,0.00,0.15,0.06,0.00
2016-05-24 23:20:00,2,2368,74,0.18,2,2,0,2,1223,4883,1003,2154,71,77,3,74,0.00,0.85,0.26,0.05
2016-05-24 23:30:00,2,2661,25,0.02,2,2,0,2,1789,3465,655,2696,10,67,20,10,0.00,0.10,0.03,0.00
2016-05-24 23:40:00,2,7626,16,0.00,2,2,0,2,3398,11536,2669,8078,10,67,17,10,0.00,0.00,0.00,0.00
2016-05-24 23:50:00,2,12166,10,0.00,2,2,0,2,2592,29989,9037,7831,10,10,0,10,0.00,0.00,0.00,0.00
